Regional Weather Roundup
Issued by NWS Cleveland, OH

Home | Current Version | Previous Version | Graphics & Text | Print | Product List | Glossary On
Versions: 1 2 3 4 5 6 7 8 9 10 11 12 13 14 15 16 17 18 19 20 21 22 23 24 25 26 27 28 29 30 31 32 33 34 35 36 37 38 39 40 41 42 43 44 45 46 47 48 49 50
000
ASUS41 KCLE 212102
RWRCLE
OHIO REGIONAL WEATHER ROUNDUP
NATIONAL WEATHER SERVICE CLEVELAND, OH
500 PM EDT SUN SEP 21 2014

NOTE: "FAIR" INDICATES FEW OR NO CLOUDS BELOW 12,000 FEET WITH NO
SIGNIFICANT WEATHER AND/OR OBSTRUCTIONS TO VISIBILITY.

OHZ001>008-015>018-024>027-034-035-043-044-212200-
   NORTHWEST OHIO

CITY           SKY/WX    TMP DP  RH WIND       PRES   REMARKS
DEFIANCE       MOSUNNY  N/A N/A N/A W8G17     29.83R
FINDLAY        LGT RAIN  65  51  60 W25G36    29.81R
TOLEDO EXPRESS CLOUDY    65  53  65 W15       29.78S
TOLEDO EXEC    PTSUNNY   65  51  60 W22G31    29.78R
LIMA           CLOUDY    66  50  56 NW21G31   29.85R
$$

OHZ009>014-019>023-028>033-038-089-212200-
   NORTHEAST OHIO

CITY           SKY/WX    TMP DP  RH WIND       PRES   REMARKS
CLE-HOPKINS    PTSUNNY   67  51  56 W17G26    29.74R
CLE-LAKEFRONT  PTSUNNY   67  53  61 W31G39    29.69S
CUY CO. ARPT   PTSUNNY   68  55  64 W20G32    29.71S
LORAIN-ELYRIA  CLOUDY    69  50  50 W15G31    29.75R
ASHTABULA      PTSUNNY   68  53  58 W15G23    29.70R
AKRON-CANTON   MOSUNNY   72  44  36 W22G31    29.72R
WOOSTER        PTSUNNY   71  48  43 W23G33    29.75R
MANSFIELD      CLOUDY    66  47  50 W14G29    29.79R
YOUNGSTOWN     MOSUNNY   67  54  63 NW13G33   29.69R
$$

OHZ042-051>053-060>062-070>072-077>081-212200-
  SOUTHWEST OHIO

CITY           SKY/WX    TMP DP  RH WIND       PRES   REMARKS
CINC-COVINGTON MOSUNNY   73  47  39 NW18G29   29.87R
CINC-LUNKEN    MOSUNNY   76  46  34 W22G37    29.86R
HAMILTON       MOSUNNY   76  48  37 NW18G25   29.87R
DAYTON         PTSUNNY   72  48  42 NW24G35   29.87R
WRIGHT-PAT AFB MOSUNNY   71  47  43 W21G26    29.85R
DAYTON GENERAL SUNNY     72  48  42 NW24G35   29.86R
WILMINGTON     MOSUNNY   74  44  34 NW20G35   29.84R
$$

OHZ036-037-039>041-045>050-054>059-063>069-073>076-082>088-212200-
  CENTRAL AND SOUTHEAST OHIO

CITY           SKY/WX    TMP DP  RH WIND       PRES   REMARKS
COLUMBUS       MOSUNNY   77  45  32 NW31G37   29.79R
OSU AIRPORT    MOSUNNY   71  47  42 NW21G33   29.81R
BOLTON FIELD   MOSUNNY   73  48  40 W21G30    29.81R
RICKENBACK AFB MOSUNNY   74  44  33 NW18G29   29.79R
NEWARK         MOSUNNY   75  45  34 NW21G32   29.77R
MARION         PTSUNNY   68  47  46 W26G36    29.81R
LANCASTER      SUNNY     76  43  30 NW21G32   29.79R
ZANESVILLE     MOSUNNY   77  42  28 W23G33    29.75R
NEW PHILLY     PTSUNNY   74  46  36 W15G22    29.73R
$$



USA.gov is the U.S. government's official web portal to all federal, state and local government web resources and services.